Lid_Strength_Index
3 5 5 6 9 11 14 13 12 11 11 10 8 7 7 8 9 11 5 1 -0 -0 -1 -1 -1 -2 -2 -2 -2 -2 -2 -2 -2 -2 -2 -2 -2 -2 -2 -2 -2 -2 -2 -2 -2 -2 -2 -2 -2
3 3 5 9 12 15 15 12 12 11 9 8 8 8 8 9 6 4 3 1 -0 -0 -1 -1 -1 -2 -2 -2 -2 -2 -2 -2 -2 -2 -2 -2 -2 -2 -2 -2 -2 -2 -2 -2 -2 -2 -2 -2 -2
3 5 8 10 14 15 15 12 10 10 9 9 9 7 7 8 5 4 2 0 -0 -0 -1 -0 -1 -2 -2 -2 -2 -2 -2 -2 -2 -2 -2 -2 -2 -2 -2 -2 -2 -2 -2 -2 -2 -2 -2 -2 -2
5 8 10 13 14 13 11 10 10 10 9 8 8 8 7 4 5 3 1 0 0 -0 -0 -0 -1 -1 -2 -2 -2 -2 -2 -2 -2 -2 -2 -2 -2 -2 -2 -2 -2 -2 -2 -2 -2 -2 -2 -2 -2
7 9 12 14 14 12 12 10 10 10 10 10 8 8 8 4 3 1 1 0 0 0 -0 -0 -1 -1 -2 -2 -2 -2 -2 -2 -2 -2 -2 -2 -2 -2 -2 -2 -2 -2 -2 -2 -2 -2 -2 -2 -2
9 10 14 15 14 12 11 9 9 10 10 10 8 8 7 4 2 2 1 1 0 0 -0 -0 1 -0 -1 -1 -2 -2 -2 -2 -2 -2 -2 -2 -2 -2 -2 -2 -2 -2 -2 -2 -2 -2 -2 -2 -2
9 12 14 14 13 12 10 10 10 10 9 9 8 9 7 7 3 3 1 0 -0 -0 -0 -0 -0 -0 0 -1 -1 -1 -2 -2 -2 -2 -2 -2 -2 -2 -2 -2 -2 -2 -2 -2 -2 -2 -2 -2 -2
9 11 14 13 13 12 11 10 10 10 10 8 7 9 9 7 4 3 1 1 0 -0 -0 -0 -0 -0 -0 -0 0 -1 -1 -1 -2 -2 -1 -1 -1 -2 -2 -2 -2 -2 -2 -2 -2 -2 -2 -2 -1
9 13 14 13 13 12 11 11 10 9 9 9 8 6 5 5 4 4 4 3 1 1 0 -0 -0 -0 -0 0 1 1 0 -0 -1 -0 1 1 1 1 1 -0 -2 -2 -2 -2 -1 -1 -1 0 1
11 13 13 13 13 12 10 10 10 10 10 10 7 5 4 5 5 5 5 4 3 2 1 -0 -0 -0 0 -0 1 1 1 0 1 1 1 1 1 1 1 1 -1 -1 -1 -1 -1 -0 2 4 5
11 13 11 11 11 10 10 11 10 11 12 10 8 6 4 5 6 5 6 3 3 2 1 0 -0 -0 -0 -0 1 0 1 1 0 0 0 1 1 1 2 2 2 2 3 4 4 5 5 5 6
13 11 11 10 10 10 11 10 12 11 10 9 8 4 4 4 4 5 5 5 3 2 1 0 0 -0 -0 -0 0 0 1 1 1 1 0 1 1 1 3 3 4 4 4 5 6 7 7 7 7
12 12 11 10 10 11 10 12 11 11 9 10 8 5 5 4 4 3 4 4 4 3 2 1 1 0 -0 -0 -0 0 0 1 1 1 2 1 2 2 2 3 4 5 5 6 7 8 8 9 9
11 11 11 10 10 10 11 12 12 11 11 10 8 6 5 5 4 5 4 4 4 2 2 1 1 0 -0 0 -0 0 0 1 2 1 2 2 1 2 3 4 4 5 5 7 8 9 10 11 10
10 12 12 11 11 11 11 13 12 11 11 11 10 9 7 5 5 4 4 3 3 2 2 1 1 1 0 1 -0 0 1 1 2 2 2 2 2 2 2 4 5 5 6 9 10 12 12 13 13
13 13 16 13 11 11 12 15 12 11 11 11 11 12 10 8 6 4 4 4 4 3 2 2 1 1 1 1 0 0 1 1 2 2 2 2 2 2 3 4 4 5 8 10 11 12 13 14 14
14 17 16 13 11 11 13 14 12 11 12 11 11 11 11 11 10 8 5 4 4 4 3 2 1 1 1 1 1 1 1 1 1 2 2 2 2 2 4 5 5 6 9 11 11 13 14 14 15
16 16 16 16 12 13 14 13 11 11 12 11 11 11 11 10 9 8 8 6 4 4 3 2 2 2 1 2 1 1 1 1 1 1 2 2 2 3 5 6 6 6 9 10 12 13 15 14 14
14 15 16 15 12 13 13 13 12 11 12 12 12 12 11 10 8 9 9 8 7 4 3 2 2 3 3 3 3 3 2 4 2 1 2 3 3 4 5 6 6 7 9 10 12 13 14 14 14
14 16 16 14 12 13 14 14 12 12 12 11 10 11 11 11 11 9 9 9 8 4 2 2 2 3 3 3 3 4 6 7 7 6 4 3 4 5 6 6 6 7 8 10 12 13 14 14 14
14 15 15 14 14 15 15 16 14 13 12 11 11 10 9 11 11 10 10 10 10 6 2 2 2 3 3 5 8 10 9 9 9 9 8 7 4 5 6 6 6 6 8 10 12 12 13 14 14
15 12 13 14 15 18 15 19 16 14 12 12 11 11 11 11 11 10 10 10 10 6 3 3 3 3 5 7 6 7 7 7 8 8 9 8 8 6 6 6 6 6 7 9 12 12 12 13 14
13 12 13 14 16 17 18 18 18 15 14 12 11 11 11 11 10 10 10 9 9 6 4 4 4 5 6 6 6 6 7 6 8 8 8 9 9 8 8 7 7 7 7 8 10 11 12 12 13
11 12 13 15 16 19 17 17 19 16 14 14 12 11 11 11 11 10 10 9 9 8 5 5 5 6 6 7 7 6 6 7 9 8 8 9 9 10 9 9 8 7 7 8 10 11 11 12 12
12 15 19 20 20 20 17 18 17 14 12 12 11 10 11 11 11 10 10 9 9 8 7 6 6 7 7 8 8 8 7 6 6 7 7 9 10 12 10 10 9 8 8 8 9 10 11 12 12
13 14 17 22 21 20 17 19 16 13 11 11 10 10 10 11 10 11 10 9 9 8 8 7 6 7 7 8 9 8 8 8 8 9 10 9 9 9 10 10 10 10 8 9 9 10 11 11 12
13 14 13 16 22 20 17 16 13 11 10 11 10 10 10 11 10 10 10 9 9 8 8 7 7 7 7 7 8 8 8 9 9 10 11 11 12 12 12 10 10 10 10 10 10 11 11 12 12
12 11 15 16 21 22 19 18 16 14 13 11 11 11 11 11 10 10 10 10 9 9 8 8 8 8 8 8 8 9 9 10 10 11 12 12 13 13 14 13 12 12 11 11 11 11 12 12 12
13 14 13 14 16 20 22 19 14 13 12 12 11 11 11 11 10 10 11 10 10 10 9 9 9 9 9 9 9 9 10 11 11 11 12 13 14 14 15 14 14 13 12 12 12 12 13 12 12
12 13 13 17 19 18 18 18 12 13 12 11 12 11 11 11 11 11 11 11 11 11 10 10 10 10 10 9 10 10 10 11 12 12 13 14 14 15 15 15 15 14 14 13 13 13 13 12 13